Location: ?????
(54.9266°N, 38.5527°E)
Time: 23:35:11
(UTC+00:00)

Cosmos 2221 - Visible Passes

Search period start: 23 July 2024 00:00
Search period end: 02 August 2024 00:00
Orbit: 580 x 603 km, 82.5° (Epoch: 23 July)

Date Brightness Start Highest point End Pass type
(mag) Time Alt. Az. Time Alt. Az. Time Alt. Az.
23 Jul 3.8 19:58:55 10° N 20:02:42 30° ENE 20:05:40 14° ESE visible
23 Jul 3.3 21:36:07 10° NNW 21:40:06 39° W 21:42:15 23° SW visible
24 Jul 3.3 20:07:28 10° N 20:11:32 40° ENE 20:14:15 19° SE visible
24 Jul 3.9 21:45:02 10° NNW 21:48:41 28° W 21:50:50 19° SW visible
25 Jul 5.0 18:41:22 10° NE 18:42:00 10° NE 18:42:37 10° ENE visible
25 Jul 2.8 20:16:05 10° N 20:20:18 56° ENE 20:22:50 23° SE visible
25 Jul 4.3 21:54:03 10° NW 21:57:15 21° W 21:59:25 15° WSW visible
26 Jul 4.8 18:48:47 10° NNE 18:50:58 14° ENE 18:53:09 10° E visible
26 Jul 2.5 20:24:44 10° N 20:29:03 79° E 20:31:26 26° SSE visible
26 Jul 4.7 22:03:16 10° NW 22:05:46 15° W 22:08:00 11° WSW visible
27 Jul 4.5 18:56:56 10° NNE 18:59:53 18° ENE 19:02:50 10° ESE visible
27 Jul 2.5 20:33:26 10° NNW 20:37:43 75° W 20:40:01 27° S visible
27 Jul 4.9 22:12:59 10° WNW 22:14:13 11° W 22:15:28 10° W visible
28 Jul 4.1 19:05:18 10° N 19:08:45 23° ENE 19:12:02 11° ESE visible
28 Jul 2.9 20:42:11 10° NNW 20:46:22 53° W 20:48:36 25° SSW visible
29 Jul 3.7 19:13:45 10° N 19:17:34 31° ENE 19:20:38 14° SE visible
29 Jul 3.5 20:50:59 10° NNW 20:54:57 38° W 20:57:12 22° SW visible
30 Jul 3.2 19:22:15 10° N 19:26:21 41° ENE 19:29:13 18° SE visible
30 Jul 4.0 20:59:51 10° NNW 21:03:30 28° W 21:05:48 18° SW visible
31 Jul 2.8 19:30:49 10° N 19:35:05 57° ENE 19:37:49 21° SSE visible
31 Jul 4.4 21:08:49 10° NW 21:12:00 21° W 21:14:24 13° SW visible
01 Aug 2.5 19:39:26 10° N 19:43:45 80° ENE 19:46:25 23° SSE visible
01 Aug 4.8 21:17:59 10° NW 21:20:27 15° W 21:22:56 10° WSW visible
